Regional Weather Roundup
Issued by NWS

Home | Current Version | Previous Version | Text Only | Print | Product List | Glossary On
Versions: 1 2 3 4 5 6 7 8 9 10 11 12 13 14 15 16 17 18 19 20 21 22 23 24 25 26 27 28 29 30 31 32 33 34 35 36 37 38 39 40 41 42 43 44 45 46 47 48 49 50
000
ASHW40 PHFO 281432
RWRHI

WEATHER ROUNDUP FOR HAWAII
NATIONAL WEATHER SERVICE HONOLULU HI
400 AM HST TUE FEB 28 2017

THIS IS AN AUTOMATED REPORT THAT HAS NOT BEEN QUALITY CONTROLLED.

NOTE..."FAIR" INDICATES FEW OR NO CLOUDS BELOW 12,000 FEET WITH NO
SIGNIFICANT WEATHER AND/OR OBSTRUCTIONS TO VISIBILITY.

* - THESE SITES REPORT LIMITED FIELDS

HIZ001>004-281500-
KAUAI-NIIHAU-

CITY           SKY/WX    TMP DP  RH WIND       PRES   REMARKS
LIHUE APT      CLOUDY    72  68  87 E16       29.95S
PORT ALLEN*      N/A     72 N/A N/A E15G21      N/A
POIPU*           N/A     73 N/A N/A E9G20       N/A
PRINCEVILLE*     N/A     68 N/A N/A SE9G21      N/A
KOKOLE POINT*  NOT AVBL
MOLOAA DAIRY*    N/A     70  66  88 E7G18       N/A
WAIMEA HTS*    NOT AVBL
PUU OPAE*      NOT AVBL
PUU LUA*       NOT AVBL
MAKAHA RIDGE*    N/A     64  61  88 CALM        N/A
$$

HIZ005>011-281500-
OAHU-

CITY           SKY/WX    TMP DP  RH WIND       PRES   REMARKS
HONOLULU       CLOUDY    72  63  73 E9        29.93S
KALAELOA       LGT RAIN  72  64  76 NE6       29.94S
KANEOHE MCB    NOT AVBL
WHEELER FIELD  RAIN      67  65  92 VRB3      29.95S
BELLOWS*       NOT AVBL
KAHUKU*        NOT AVBL
WHEELER*       NOT AVBL
WAIANAE HARBOR NOT AVBL
DILLINGHAM*    NOT AVBL
KAHUKU TRN*      N/A     79  72  78 W9G24       N/A
KAWAILOA*        N/A     66  63  88 E12G24      N/A
KII*             N/A     73  64  73 E21G28      N/A
MAKUA RANGE*     N/A     73  63  68 SW5G15      N/A
OAHU FOREST NW NOT AVBL
SCHOFIELD BRK*   N/A     66  64  94 MISG        N/A
SCHOFIELD S*   NOT AVBL
WAIANAE VLY*   NOT AVBL
KUAOKALA*      NOT AVBL
HONOULIUULI*   NOT AVBL
MOKUOLOE IS*   NOT AVBL
PALEHUA*       NOT AVBL
WAIAWA PHB*    NOT AVBL
$$

HIZ012>013-281500-
MOLOKAI-

CITY           SKY/WX    TMP DP  RH WIND       PRES   REMARKS
MOLOKAI AIRPT  CLOUDY    72  61  68 E8G17     29.93F
KALAUPAPA      NOT AVBL
MAKAPULAPAI*     N/A     72  61  68 E15G25      N/A
MOLOKAI 1*     NOT AVBL
PUU ALII*        N/A     55  55 100 NE3G12      N/A
$$

HIZ016-281500-
KAHOOLAWE-

CITY           SKY/WX    TMP DP  RH WIND       PRES   REMARKS
KAHOOLAWE*     NOT AVBL
HAKIOAWA*      NOT AVBL
HONOKANAIA*      N/A     72  62  71 NE17G35   29.87F
KANELOA*         N/A     68  63  83 E18G32    29.99F
KEALIALALO*    NOT AVBL
LUA MAKIKA*    NOT AVBL
$$

HIZ014>015-281500-
LANAI-

CITY           SKY/WX    TMP DP  RH WIND       PRES   REMARKS
LANAI CITY       N/A     65  61  87 NE8       29.97R
LANAI 1*       NOT AVBL
$$

HIZ017>028-281500-
MAUI-

CITY           SKY/WX    TMP DP  RH WIND       PRES   REMARKS
KAHULUI        MOCLDY    70  61  73 E9        29.92S
KAPALUA-W MAUI NOT AVBL
HANA AIRPORT   MOCLDY    72  63  73 SE7       29.99S
HANA*            N/A     72 N/A N/A E6G13       N/A
HALEAKALA SUMM   N/A     37  37 100 E10G45      N/A
MAALAEA BAY*   NOT AVBL
HALEAKALA*     NOT AVBL
KAUPO GAP*     NOT AVBL
KULA 1*          N/A     48  45  87 E5          N/A
$$

HIZ023>026-281500-
BIG ISLAND OF HAWAII COAST AND LOWER SLOPES-

CITY           SKY/WX    TMP DP  RH WIND       PRES   REMARKS
KAILUA KONA    CLOUDY    72  63  73 N7        29.90S
HILO           CLOUDY    66  63  90 SW7       29.97F
HONOKAA*         N/A     64 N/A N/A VRB1        N/A
KAWAIHAE MWT*    N/A     73 N/A N/A NE3         N/A
KAWAIHAE*        N/A     73 N/A N/A N3        29.90F
SOUTH POINT*     N/A     66 N/A N/A N16G23      N/A
UPOLU AIRPORT* NOT AVBL
KAMUELA*       CLOUDY    61  57  88 NE9       30.01R
HAKALAU*         N/A     48  48 100 S6G12       N/A
KALOKO-HONOKO* NOT AVBL
PALI 2*          N/A     59  57  94 S8          N/A
KEALAKOMO*       N/A     72  63  73 VRB10       N/A
KAUPULEHU*     NOT AVBL
KAPAPALA*        N/A     61  60  96 VRB3        N/A
LOWER KAHUKU*  NOT AVBL
PUHE CS*       NOT AVBL
PUHO CS*         N/A     69  55  60 E2          N/A
PTA KEAMUKU*     N/A     57  54  88 CALM        N/A
WAIKOLOA*      NOT AVBL
$$

HIZ027>028-281500-
BIG ISLAND OF HAWAII INTERIOR AND SUMMMITS-

CITY           SKY/WX    TMP DP  RH WIND       PRES   REMARKS
BRADSHAW FIELD NOT AVBL
MK VISITOR CEN   N/A     41  36  81 E3          N/A
MAUNA KEA*       N/A     30  21  69 CALM        N/A
MAUNA LOA*       N/A    N/A N/A N/A MISG        N/A
MAUNA LOA 1*   NOT AVBL
PTA KIPUKA*      N/A     52  52 100 E3          N/A
PTA RANGE 17*    N/A     54  46  76 SE10G17     N/A
PTA WEST*        N/A     54  52  94 SE7         N/A
NENE CABIN*    NOT AVBL
AHUMOA*        NOT AVBL
PTA PORTABLE*  NOT AVBL
PUU MALI*        N/A     52  45  76 E3G12       N/A
$$

HIC003-281500-
NORTHWEST ISLANDS-

CITY           SKY/WX    TMP DP  RH WIND       PRES   REMARKS
MIDWAY ISLAND  PTCLDY    63  57  82 NE3       29.97F
MIDWAY NOS*      N/A     64 N/A N/A MISG      29.94F
FRENCH FRIGATE NOT AVBL
$$

PHZ110>124-180-281500-
BUOY REPORTS

STATION/POSITION TIME  TEMP    WIND        PRES    WAVE   SWELL
                       AIR SEA DIR/SP/G            HT/PER HT/DIR
                 (UTC) (F)     (DEG/KT/KT) (MB)    (FT/S) (FT/D)
BUOY 51001       1410   72 72  100/ 14/ 19 1013.6
BUOY 51101       1350   71 73  100/ 10/ 12 1014.4F   7/11   7/ 20
BUOY 51100       NOT AVBL
BUOY 51002       1410   74 76  100/ 16/ 21 1011.3
BUOY 51003       1350   71 77  100/ 21/ 25 1011.9F   9/ 8   5/330
BUOY 51004       1350      76   80/ 12/ 14 1013.3R   7/13   7/360
BARBERS PT BUOY  NOT AVBL
WAIMEA BAY BUOY  1402      74                N/A     7/12   3/ 10
KAILUA BAY BUOY  1404      75                N/A     9/ 7   3/ 40
LANAI BUOY       1415      76                N/A     3/14   2/240
BARBERS PT 2     NOT AVBL
PAUWELA MAUI     1409      75                N/A     8/12   3/ 10
HILO             1412      75                N/A     8/13   5/ 10
KANEOHE BAY BUOY 1406      75                N/A     8/13   3
HANALEI KAUAI    1352      76                N/A     8/12   3/ 20
KAHULUI HARBOR   1400   72 75   80/  8/ 17 1013.4
HONOLULU HARBOR  1400   73 76   60/  4/  9 1014.2
KILO NALU        NOT AVBL
HILO HARBOR      1400   67 75  200/  5/  7 1014.5
MOKUOLOE         1336   73 73  100/ 17/ 23 1013.7F
NAWILIWILI       1400   74      80/ 18/ 20 1013.5
WHOTS BUOY       NOT AVBL
BUOY 51028       NOT AVBL
$$

......................KEY........................................
  SKY/WX - SKY CONDITIONS/PRESENT WEATHER
  TMP    - TEMPERATURE IN FAHRENHEIT
  DWPT   - DEWPOINT IN FAHRENHEIT
  RH     - RELATIVE HUMIDITY IN PERCENT
  WIND   - DIRECTION AND SPEED /MPH FOR ISLANDS...KTS FOR BUOYS/
  PRES   - MEAN SEA LEVEL PRESSURE IN INCHES OF HG
  VSB    - VISIBILITY IN MILES
  HX     - HEAT INDEX
  WCI    - WIND CHILL INDEX
  VRB    - VARIABLE WIND DIRECTION
  N/A    - NOT AVAILABLE



USA.gov is the U.S. government's official web portal to all federal, state and local government web resources and services.